Regional Weather Roundup
Issued by NWS

Home | Current Version | Previous Version | Graphics & Text | Print | Product List | Glossary On
Versions: 1 2 3 4 5 6 7 8 9 10 11 12 13 14 15 16 17 18 19 20 21 22 23 24 25 26 27 28 29 30 31 32 33 34 35 36 37 38 39 40 41 42 43 44 45 46 47 48 49 50
000
ASUS45 KPSR 010300
RWRAZ

PRELIMINARY ARIZONA REGIONAL HOURLY WEATHER ROUNDUP
NATIONAL WEATHER SERVICE PHOENIX AZ
800 PM MST SUN AUG 31 2014

NOTE: FAIR INDICATES FEW OR NO CLOUDS BELOW 12,000 FEET WITH NO
SIGNIFICANT WEATHER AND/OR OBSTRUCTIONS TO VISIBILITY.

AZZ001>003-036-010400-
NORTHWEST ARIZONA

CITY           SKY/WX    TMP DP  RH WIND       PRES   REMARKS
KINGMAN        CLEAR     83  34  17 S10       29.89R
$$

AZZ004>008-015-016-018-010400-
NORTH CENTRAL ARIZONA

CITY           SKY/WX    TMP DP  RH WIND       PRES   REMARKS
GRAND CANYON     N/A    N/A N/A N/A MISG        N/A
WILLIAMS       CLEAR     68  39  34 S7        30.23R
PRESCOTT       CLEAR     74  44  34 S5        30.05R
FLAGSTAFF      CLEAR     64  41  42 SW5       30.20R
PAYSON         CLEAR     75  39  27 CALM      30.09R
PAGE           CLEAR     89  29  11 W6        29.89R
$$

AZZ009>014-017-010400-
NORTHEAST ARIZONA

CITY           SKY/WX    TMP DP  RH WIND       PRES   REMARKS
WINSLOW        NOT AVBL
SAINT JOHNS    CLEAR     76  41  28 SW10      30.09R
WINDOW ROCK    CLEAR     70  36  28 SW6       30.15R
$$

AZZ023-010400-
GREATER PHOENIX AREA

CITY           SKY/WX    TMP DP  RH WIND       PRES   REMARKS
PHOENIX        PTCLDY   102  40  12 W6        29.71R
LUKE AFB       NOT AVBL
DEER VALLEY    CLEAR     97  40  14 CALM      29.74R
SCOTTSDALE     CLEAR     98  42  14 CALM      29.76R
MESA-FALCON    PTCLDY    99  41  13 W6        29.74R
MESA-GATEWAY   CLEAR     97  37  12 CALM      29.76R
CHANDLER       PTCLDY    97  41  14 MISG      29.74R
$$

AZZ027-028-010400-
SOUTHWEST MARICOPA COUNTY AND PINAL COUNTY

CITY           SKY/WX    TMP DP  RH WIND       PRES   REMARKS
CASA GRANDE    CLEAR     95  45  17 CALM      29.78R
$$

AZZ503-504-507>509-010400-
SOUTHEAST ARIZONA

CITY           SKY/WX    TMP DP  RH WIND       PRES   REMARKS
TUCSON         CLEAR     93  40  15 SW8       29.90R
DAVIS-MONTHAN  CLEAR     91  44  19 W7        29.89R
RYAN FIELD       N/A     91  43  18 S8        29.88R
NOGALES        CLEAR     73  55  53 E5        30.01R
SIERRA VISTA   CLEAR     81  48  31 SW9       30.07R
SAFFORD        CLEAR     90  38  16 NW13      29.88R
$$

AZZ020-021-025-026-031-010400-
SOUTHWEST ARIZONA

CITY           SKY/WX    TMP DP  RH WIND       PRES   REMARKS
YUMA           NOT AVBL
$$

CAZ031-033-041-043-047-048-061-010400-
SOUTHERN CALIFORNIA

CITY           SKY/WX    TMP DP  RH WIND       PRES   REMARKS
DOWNTOWN L.A.  CLEAR     75  66  73 CALM      29.77R
L.A. AIRPORT   PTCLDY    73  67  81 W5        29.78R
SAN DIEGO      MOCLDY    72  65  78 S7        29.82R
BURBANK        CLEAR     76  60  57 S5        29.79R
ONTARIO        PTCLDY    80  58  46 W9        29.79R
RIVERSIDE      CLEAR     80  62  54 W7        29.79R
PALM SPRINGS   CLEAR    100  47  16 NW15G28   29.65R
IMPERIAL       CLEAR     96  45  17 W13       29.61R
BLYTHE         CLEAR    102  41  12 SW9       29.63R
$$

NVZ020-UTZ003-010400-
SOUTHERN NEVADA-UTAH

CITY           SKY/WX    TMP DP  RH WIND       PRES   REMARKS
LAS VEGAS      NOT AVBL
SALT LAKE CITY CLEAR     69  33  26 CALM      29.98F
$$

NMZ009-TXZ055-010400-
NEW MEXICO-WEST TEXAS

CITY           SKY/WX    TMP DP  RH WIND       PRES   REMARKS
ALBUQUERQUE    CLEAR     82  35  18 W6        30.01R
EL PASO        PTCLDY    90  43  19 S7        29.93R
$$


........................KEY........................
SKY/WX - SKY CONDITION/WEATHER
TMP    - TEMPERATURE IN FAHRENHEIT
DP     - DEW POINT IN FAHRENHEIT
RH     - RELATIVE HUMIDITY IN PERCENT
WIND   - DIRECTION AND SPEED IN MILES PER HOUR (MPH)
VRB    - VARIABLE WIND DIRECTION
PRES   - MEAN SEA LEVEL PRESSURE IN INCHES OF MERCURY
         F - FALLING PRESSURE   R - RISING PRESSURE
         S - STEADY PRESSURE
VSB    - VISIBILITY IN MILES
HX     - HEAT INDEX IN FAHRENHEIT
WCI    - WIND CHILL INDEX IN FAHRENHEIT
TC     - TEMPERATURE IN CELSIUS WHICH IS ALSO KNOWN AS
         TEMPERATURE IN CENTIGRADE
AFB    - AIR FORCE BASE
         LUKE AFB IS LUKE AIR FORCE BASE
         DAVIS-MONTHAN IS DAVIS-MONTHAN AIR FORCE BASE
NAS    - NAVAL AIR STATION
         EL CENTRO NAS IS EL CENTRO NAVAL AIR STATION
N/A    - NOT AVAILABLE


USA.gov is the U.S. government's official web portal to all federal, state and local government web resources and services.